KCMY

Details ICAO KCMY
Name Sparta Fort Mc Coy
Region United States
Timezone America/Chicago (UTC-5.0)
Plans Departing 2
Arriving 0
Stats Elevation 837 ft / 255 m (AMSL)
Location 43.958289° -90.737908°
Runways 2
Magnetic Variation 1.767° W
Sunrise 2018-05-21 10:32:28 UTC / 2018-05-21 05:32:28 Local
Sunset 2018-05-22 01:29:30 UTC / 2018-05-21 20:29:30 Local
Advertisement - Login to hide

Runways

ID Width Length Bearing (true) Bearing (mag) Surface Threshold Offset Overrun Length
01 50 ft / 15 m 4,315 ft / 1,315 m 15.29° 17.06° Asphalt 1,375 ft / 419 m 0 ft / 0 m
11 100 ft / 30 m 4,700 ft / 1,433 m 112.22° 113.99° Asphalt 0 ft / 0 m 0 ft / 0 m
19 50 ft / 15 m 4,315 ft / 1,315 m 195.30° 197.07° Asphalt 0 ft / 0 m 0 ft / 0 m
29 100 ft / 30 m 4,700 ft / 1,433 m 292.23° 294.00° Asphalt 425 ft / 130 m 0 ft / 0 m

Map

Weather


0- 5 10 15 20 25 30 35+ Temperature / ° C

Clouds and Precipitation
Forecast for 2018-05-22 00:00 UTC. Updated 4 hours ago

Ground ~20,000 ft ~40,000 ft Winds

METAR

KCMY 220250Z AUTO 08006KT 10SM OVC006 13/12 A3002 RMK AO2 T01250122

TAF

Not found

Frequencies

Recorded 118.37 MHz AWOS 3
Tower 124.60 MHz TWR
Unicom 124.60 MHz CTAF
Approach 135.25 MHz VOLK APP/DEP
Warning: Do not use this data for real-world aviation or navigation. No guarantee of current accuracy is given.